User: anonymous   Login
Location: Unspecified
(0.0000°N, 0.0000°E)
Time: 18:53:25
(UTC+00:00)
Language:

Kosmos-2184 - Orbit

View from above orbital plane
View from above orbital plane
View from above satellite
View from above satellite

Ground track
Ground track

The orbit data is extracted from the following two-line orbital elements,

1 21937U 92020A   19340.72210307 +.00000010 +00000-0 -56164-5 0  9993
2 21937 082.9340 078.8273 0032173 304.4387 163.0937 13.73164005385072
Epoch (UTC): 06 December 2019 17:19:49
Eccentricity: 0.0032173
inclination: 82.9340°
perigee height: 964 km
apogee height: 1012 km
right ascension of ascending node: 78.8273°
argument of perigee: 304.4387°
revolutions per day: 13.73164005
mean anomaly at epoch: 163.0937°
orbit number at epoch: 38507

The dashed part of the orbit path shows where the satellite is in the earth's shadow,  

DLR